Time,TemperatureF,DewpointF,PressureIn,WindDirection,WindDirectionDegrees,WindSpeedMPH,WindSpeedGustMPH,Humidity,HourlyPrecipIn,Conditions,Clouds,dailyrainin,SolarRadiationWatts/m^2,SoftwareType,DateUTC
2013-03-12 00:02:00,20.0,9.0,-100.00,SSW,206,4.0,10.0,62,0.00,,,0.00,1.000000,,2013-03-12 06:02:00,
2013-03-12 00:12:00,20.0,9.0,-100.00,SSW,206,4.0,10.0,62,0.00,,,0.00,1.000000,,2013-03-12 06:12:00,
2013-03-12 00:22:00,20.0,9.0,-100.00,SSW,206,4.0,10.0,62,0.00,,,0.00,1.000000,,2013-03-12 06:22:00,
2013-03-12 00:42:00,19.0,6.0,-100.00,SW,216,6.0,17.0,55,0.00,,,0.00,1.000000,,2013-03-12 06:42:00,
2013-03-12 00:52:00,19.0,6.0,-100.00,SW,216,6.0,17.0,55,0.00,,,0.00,1.000000,,2013-03-12 06:52:00,
2013-03-12 01:02:00,19.0,6.0,-100.00,SW,216,6.0,17.0,55,0.00,,,0.00,1.000000,,2013-03-12 07:02:00,
2013-03-12 01:12:00,19.0,6.0,-100.00,SW,216,6.0,17.0,55,0.00,,,0.00,1.000000,,2013-03-12 07:12:00,
2013-03-12 01:22:00,19.0,6.0,-100.00,SW,216,6.0,17.0,55,0.00,,,0.00,1.000000,,2013-03-12 07:22:00,
2013-03-12 01:42:00,18.0,3.0,-100.00,SW,219,6.0,17.0,52,0.00,,,0.00,1.000000,,2013-03-12 07:42:00,
2013-03-12 01:52:00,18.0,3.0,-100.00,SW,219,6.0,17.0,52,0.00,,,0.00,1.000000,,2013-03-12 07:52:00,
2013-03-12 02:02:00,18.0,3.0,-100.00,SW,219,6.0,17.0,52,0.00,,,0.00,1.000000,,2013-03-12 08:02:00,
2013-03-12 02:12:00,18.0,3.0,-100.00,SW,219,6.0,17.0,52,0.00,,,0.00,1.000000,,2013-03-12 08:12:00,
2013-03-12 02:22:00,18.0,3.0,-100.00,SW,219,6.0,17.0,52,0.00,,,0.00,1.000000,,2013-03-12 08:22:00,
2013-03-12 02:42:00,17.0,1.0,-100.00,SW,214,5.0,14.0,49,0.00,,,0.00,1.000000,,2013-03-12 08:42:00,
2013-03-12 02:52:00,17.0,1.0,-100.00,SW,214,5.0,14.0,49,0.00,,,0.00,1.000000,,2013-03-12 08:52:00,
2013-03-12 03:03:00,17.0,1.0,-100.00,SW,214,5.0,14.0,49,0.00,,,0.00,1.000000,,2013-03-12 09:03:00,
2013-03-12 03:12:00,17.0,1.0,-100.00,SW,214,5.0,14.0,49,0.00,,,0.00,1.000000,,2013-03-12 09:12:00,
2013-03-12 03:22:00,17.0,1.0,-100.00,SW,214,5.0,14.0,49,0.00,,,0.00,1.000000,,2013-03-12 09:22:00,
2013-03-12 03:43:00,16.0,0.0,-100.00,SSW,196,5.0,13.0,49,0.00,,,0.00,1.000000,,2013-03-12 09:43:00,
2013-03-12 03:52:00,16.0,0.0,-100.00,SSW,196,5.0,13.0,49,0.00,,,0.00,1.000000,,2013-03-12 09:52:00,
2013-03-12 04:02:00,16.0,0.0,-100.00,SSW,196,5.0,13.0,49,0.00,,,0.00,1.000000,,2013-03-12 10:02:00,
2013-03-12 04:12:00,16.0,0.0,-100.00,SSW,196,5.0,13.0,49,0.00,,,0.00,1.000000,,2013-03-12 10:12:00,
2013-03-12 04:22:00,16.0,0.0,-100.00,SSW,196,5.0,13.0,49,0.00,,,0.00,1.000000,,2013-03-12 10:22:00,
2013-03-12 04:42:00,16.0,-1.0,-100.00,SSW,201,5.0,21.0,46,0.00,,,0.00,0.000000,,2013-03-12 10:42:00,
2013-03-12 04:53:00,16.0,-1.0,-100.00,SSW,201,5.0,21.0,46,0.00,,,0.00,0.000000,,2013-03-12 10:53:00,
2013-03-12 05:02:00,16.0,-1.0,-100.00,SSW,201,5.0,21.0,46,0.00,,,0.00,0.000000,,2013-03-12 11:02:00,
2013-03-12 05:12:00,16.0,-1.0,-100.00,SSW,201,5.0,21.0,46,0.00,,,0.00,0.000000,,2013-03-12 11:12:00,
2013-03-12 05:22:00,16.0,-1.0,-100.00,SSW,201,5.0,21.0,46,0.00,,,0.00,0.000000,,2013-03-12 11:22:00,
2013-03-12 05:42:00,15.0,-1.0,-100.00,South,190,5.0,18.0,48,0.00,,,0.00,1.000000,,2013-03-12 11:42:00,
2013-03-12 05:52:00,15.0,-1.0,-100.00,South,190,5.0,18.0,48,0.00,,,0.00,1.000000,,2013-03-12 11:52:00,
2013-03-12 06:02:00,15.0,-1.0,-100.00,South,190,5.0,18.0,48,0.00,,,0.00,1.000000,,2013-03-12 12:02:00,
2013-03-12 06:12:00,15.0,-1.0,-100.00,South,190,5.0,18.0,48,0.00,,,0.00,1.000000,,2013-03-12 12:12:00,
2013-03-12 06:22:00,15.0,-1.0,-100.00,South,190,5.0,18.0,48,0.00,,,0.00,1.000000,,2013-03-12 12:22:00,
2013-03-12 06:42:00,15.0,-2.0,-100.00,West,278,5.0,16.0,45,0.00,,,0.00,1.000000,,2013-03-12 12:42:00,
2013-03-12 06:52:00,15.0,-2.0,-100.00,West,278,5.0,16.0,45,0.00,,,0.00,1.000000,,2013-03-12 12:52:00,
2013-03-12 07:02:00,15.0,-2.0,-100.00,West,278,5.0,16.0,45,0.00,,,0.00,1.000000,,2013-03-12 13:02:00,
2013-03-12 07:12:00,15.0,-2.0,-100.00,West,278,5.0,16.0,45,0.00,,,0.00,1.000000,,2013-03-12 13:12:00,
2013-03-12 07:22:00,15.0,-2.0,-100.00,West,278,5.0,16.0,45,0.00,,,0.00,1.000000,,2013-03-12 13:22:00,
2013-03-12 07:43:00,14.0,-3.0,-100.00,WNW,292,5.0,19.0,45,0.00,,,0.00,2.000000,,2013-03-12 13:43:00,
2013-03-12 07:52:00,14.0,-3.0,-100.00,WNW,292,5.0,19.0,45,0.00,,,0.00,2.000000,,2013-03-12 13:52:00,
2013-03-12 08:02:00,14.0,-3.0,-100.00,WNW,292,5.0,19.0,45,0.00,,,0.00,2.000000,,2013-03-12 14:02:00,
2013-03-12 08:12:00,14.0,-3.0,-100.00,WNW,292,5.0,19.0,45,0.00,,,0.00,2.000000,,2013-03-12 14:12:00,
2013-03-12 08:22:00,14.0,-3.0,-100.00,WNW,292,5.0,19.0,45,0.00,,,0.00,2.000000,,2013-03-12 14:22:00,
2013-03-12 08:43:00,16.0,-2.0,-100.00,SW,214,5.0,17.0,43,0.00,,,0.00,19.000000,,2013-03-12 14:43:00,
2013-03-12 08:53:00,16.0,-2.0,-100.00,SW,214,5.0,17.0,43,0.00,,,0.00,19.000000,,2013-03-12 14:53:00,
2013-03-12 09:02:00,16.0,-2.0,-100.00,SW,214,5.0,17.0,43,0.00,,,0.00,19.000000,,2013-03-12 15:02:00,
2013-03-12 09:12:00,16.0,-2.0,-100.00,SW,214,5.0,17.0,43,0.00,,,0.00,19.000000,,2013-03-12 15:12:00,
2013-03-12 09:22:00,16.0,-2.0,-100.00,SW,214,5.0,17.0,43,0.00,,,0.00,19.000000,,2013-03-12 15:22:00,
2013-03-12 09:43:00,22.0,-2.0,-100.00,WSW,237,5.0,19.0,34,0.00,,,0.00,168.000000,,2013-03-12 15:43:00,
2013-03-12 09:53:00,22.0,-2.0,-100.00,WSW,237,5.0,19.0,34,0.00,,,0.00,168.000000,,2013-03-12 15:53:00,
2013-03-12 10:02:00,22.0,-2.0,-100.00,WSW,237,5.0,19.0,34,0.00,,,0.00,168.000000,,2013-03-12 16:02:00,
2013-03-12 10:12:00,22.0,-2.0,-100.00,WSW,237,5.0,19.0,34,0.00,,,0.00,168.000000,,2013-03-12 16:12:00,
2013-03-12 10:22:00,22.0,-2.0,-100.00,WSW,237,5.0,19.0,34,0.00,,,0.00,168.000000,,2013-03-12 16:22:00,
2013-03-12 10:43:00,25.0,-5.0,-100.00,NW,323,6.0,14.0,26,0.00,,,0.00,477.000000,,2013-03-12 16:43:00,
2013-03-12 10:53:00,25.0,-5.0,-100.00,NW,323,6.0,14.0,26,0.00,,,0.00,477.000000,,2013-03-12 16:53:00,
2013-03-12 11:03:00,25.0,-5.0,-100.00,NW,323,6.0,14.0,26,0.00,,,0.00,477.000000,,2013-03-12 17:03:00,
2013-03-12 11:13:00,25.0,-5.0,-100.00,NW,323,6.0,14.0,26,0.00,,,0.00,477.000000,,2013-03-12 17:13:00,
2013-03-12 11:22:00,25.0,-5.0,-100.00,NW,323,6.0,14.0,26,0.00,,,0.00,477.000000,,2013-03-12 17:22:00,
2013-03-12 11:44:00,29.0,-7.0,-100.00,NNW,339,5.0,17.0,20,0.00,,,0.00,632.000000,,2013-03-12 17:44:00,
2013-03-12 11:53:00,29.0,-7.0,-100.00,NNW,339,5.0,17.0,20,0.00,,,0.00,632.000000,,2013-03-12 17:53:00,
2013-03-12 12:03:00,29.0,-7.0,-100.00,NNW,339,5.0,17.0,20,0.00,,,0.00,632.000000,,2013-03-12 18:03:00,
2013-03-12 12:13:00,29.0,-7.0,-100.00,NNW,339,5.0,17.0,20,0.00,,,0.00,632.000000,,2013-03-12 18:13:00,
2013-03-12 12:22:00,29.0,-7.0,-100.00,NNW,339,5.0,17.0,20,0.00,,,0.00,632.000000,,2013-03-12 18:22:00,
2013-03-12 12:43:00,32.0,-6.0,-100.00,West,266,5.0,15.0,19,0.00,,,0.00,733.000000,,2013-03-12 18:43:00,
2013-03-12 12:53:00,32.0,-6.0,-100.00,West,266,5.0,15.0,19,0.00,,,0.00,733.000000,,2013-03-12 18:53:00,
2013-03-12 13:03:00,32.0,-6.0,-100.00,West,266,5.0,15.0,19,0.00,,,0.00,733.000000,,2013-03-12 19:03:00,
2013-03-12 13:13:00,32.0,-6.0,-100.00,West,266,5.0,15.0,19,0.00,,,0.00,733.000000,,2013-03-12 19:13:00,
2013-03-12 13:22:00,32.0,-6.0,-100.00,West,266,5.0,15.0,19,0.00,,,0.00,733.000000,,2013-03-12 19:22:00,
2013-03-12 13:44:00,35.0,-4.0,-100.00,West,262,5.0,12.0,18,0.00,,,0.00,781.000000,,2013-03-12 19:44:00,
2013-03-12 13:53:00,35.0,-4.0,-100.00,West,262,5.0,12.0,18,0.00,,,0.00,781.000000,,2013-03-12 19:53:00,
2013-03-12 14:02:00,35.0,-4.0,-100.00,West,262,5.0,12.0,18,0.00,,,0.00,781.000000,,2013-03-12 20:02:00,
2013-03-12 14:12:00,35.0,-4.0,-100.00,West,262,5.0,12.0,18,0.00,,,0.00,781.000000,,2013-03-12 20:12:00,
2013-03-12 14:22:00,35.0,-4.0,-100.00,West,262,5.0,12.0,18,0.00,,,0.00,781.000000,,2013-03-12 20:22:00,
2013-03-12 14:53:00,35.0,-2.0,-100.00,SW,228,6.0,13.0,20,0.00,,,0.00,767.000000,,2013-03-12 20:53:00,
2013-03-12 15:02:00,35.0,-2.0,-100.00,SW,228,6.0,13.0,20,0.00,,,0.00,767.000000,,2013-03-12 21:02:00,
2013-03-12 15:13:00,35.0,-2.0,-100.00,SW,228,6.0,13.0,20,0.00,,,0.00,767.000000,,2013-03-12 21:13:00,
2013-03-12 15:22:00,35.0,-2.0,-100.00,SW,228,6.0,13.0,20,0.00,,,0.00,767.000000,,2013-03-12 21:22:00,
2013-03-12 15:53:00,35.0,-7.0,-100.00,NW,313,5.0,11.0,16,0.00,,,0.00,698.000000,,2013-03-12 21:53:00,
2013-03-12 16:02:00,35.0,-7.0,-100.00,NW,313,5.0,11.0,16,0.00,,,0.00,698.000000,,2013-03-12 22:02:00,
2013-03-12 16:12:00,35.0,-7.0,-100.00,NW,313,5.0,11.0,16,0.00,,,0.00,698.000000,,2013-03-12 22:12:00,
2013-03-12 16:22:00,35.0,-7.0,-100.00,NW,313,5.0,11.0,16,0.00,,,0.00,698.000000,,2013-03-12 22:22:00,
2013-03-12 16:53:00,35.0,-3.0,-100.00,NNW,347,4.0,19.0,19,0.00,,,0.00,556.000000,,2013-03-12 22:53:00,
2013-03-12 17:02:00,35.0,-3.0,-100.00,NNW,347,4.0,19.0,19,0.00,,,0.00,556.000000,,2013-03-12 23:02:00,
2013-03-12 17:12:00,35.0,-3.0,-100.00,NNW,347,4.0,19.0,19,0.00,,,0.00,556.000000,,2013-03-12 23:12:00,
2013-03-12 17:22:00,35.0,-3.0,-100.00,NNW,347,4.0,19.0,19,0.00,,,0.00,556.000000,,2013-03-12 23:22:00,
2013-03-12 17:43:00,32.0,2.0,-100.00,SSW,205,3.0,11.0,27,0.00,,,0.00,329.000000,,2013-03-12 23:43:00,
2013-03-12 17:52:00,32.0,2.0,-100.00,SSW,205,3.0,11.0,27,0.00,,,0.00,329.000000,,2013-03-12 23:52:00,
2013-03-12 18:03:00,32.0,2.0,-100.00,SSW,205,3.0,11.0,27,0.00,,,0.00,329.000000,,2013-03-13 00:03:00,
2013-03-12 18:12:00,32.0,2.0,-100.00,SSW,205,3.0,11.0,27,0.00,,,0.00,329.000000,,2013-03-13 00:12:00,
2013-03-12 18:23:00,32.0,2.0,-100.00,SSW,205,3.0,11.0,27,0.00,,,0.00,329.000000,,2013-03-13 00:23:00,
2013-03-12 18:42:00,29.0,3.0,-100.00,SW,214,2.0,9.0,32,0.00,,,0.00,69.000000,,2013-03-13 00:42:00,
2013-03-12 18:53:00,29.0,3.0,-100.00,SW,214,2.0,9.0,32,0.00,,,0.00,69.000000,,2013-03-13 00:53:00,
2013-03-12 19:03:00,29.0,3.0,-100.00,SW,214,2.0,9.0,32,0.00,,,0.00,69.000000,,2013-03-13 01:03:00,
2013-03-12 19:12:00,29.0,3.0,-100.00,SW,214,2.0,9.0,32,0.00,,,0.00,69.000000,,2013-03-13 01:12:00,
2013-03-12 19:22:00,29.0,3.0,-100.00,SW,214,2.0,9.0,32,0.00,,,0.00,69.000000,,2013-03-13 01:22:00,
2013-03-12 19:43:00,25.0,3.0,-100.00,South,187,0.0,6.0,38,0.00,,,0.00,9.000000,,2013-03-13 01:43:00,
2013-03-12 19:53:00,25.0,3.0,-100.00,South,187,0.0,6.0,38,0.00,,,0.00,9.000000,,2013-03-13 01:53:00,
2013-03-12 20:02:00,25.0,3.0,-100.00,South,187,0.0,6.0,38,0.00,,,0.00,9.000000,,2013-03-13 02:02:00,
2013-03-12 20:12:00,25.0,3.0,-100.00,South,187,0.0,6.0,38,0.00,,,0.00,9.000000,,2013-03-13 02:12:00,
2013-03-12 20:22:00,25.0,3.0,-100.00,South,187,0.0,6.0,38,0.00,,,0.00,9.000000,,2013-03-13 02:22:00,
2013-03-12 20:43:00,25.0,2.0,-100.00,NE,49,0.0,2.0,37,0.00,,,0.00,1.000000,,2013-03-13 02:43:00,
2013-03-12 20:53:00,25.0,2.0,-100.00,NE,49,0.0,2.0,37,0.00,,,0.00,1.000000,,2013-03-13 02:53:00,
2013-03-12 21:02:00,25.0,2.0,-100.00,NE,49,0.0,2.0,37,0.00,,,0.00,1.000000,,2013-03-13 03:02:00,
2013-03-12 21:12:00,25.0,2.0,-100.00,NE,49,0.0,2.0,37,0.00,,,0.00,1.000000,,2013-03-13 03:12:00,
2013-03-12 21:22:00,25.0,2.0,-100.00,NE,49,0.0,2.0,37,0.00,,,0.00,1.000000,,2013-03-13 03:22:00,
2013-03-12 21:42:00,26.0,4.0,-100.00,ENE,68,0.0,3.0,39,0.00,,,0.00,1.000000,,2013-03-13 03:42:00,
2013-03-12 21:53:00,26.0,4.0,-100.00,ENE,68,0.0,3.0,39,0.00,,,0.00,1.000000,,2013-03-13 03:53:00,
2013-03-12 22:03:00,26.0,4.0,-100.00,ENE,68,0.0,3.0,39,0.00,,,0.00,1.000000,,2013-03-13 04:03:00,
2013-03-12 22:13:00,26.0,4.0,-100.00,ENE,68,0.0,3.0,39,0.00,,,0.00,1.000000,,2013-03-13 04:13:00,
2013-03-12 22:22:00,26.0,4.0,-100.00,ENE,68,0.0,3.0,39,0.00,,,0.00,1.000000,,2013-03-13 04:22:00,
2013-03-12 22:43:00,25.0,3.0,-100.00,West,271,2.0,5.0,38,0.00,,,0.00,0.000000,,2013-03-13 04:43:00,
2013-03-12 22:53:00,25.0,3.0,-100.00,West,271,2.0,5.0,38,0.00,,,0.00,0.000000,,2013-03-13 04:53:00,
2013-03-12 23:02:00,25.0,3.0,-100.00,West,271,2.0,5.0,38,0.00,,,0.00,0.000000,,2013-03-13 05:02:00,
2013-03-12 23:12:00,25.0,3.0,-100.00,West,271,2.0,5.0,38,0.00,,,0.00,0.000000,,2013-03-13 05:12:00,
2013-03-12 23:22:00,25.0,3.0,-100.00,West,271,2.0,5.0,38,0.00,,,0.00,0.000000,,2013-03-13 05:22:00,
2013-03-12 23:42:00,26.0,4.0,-100.00,West,281,2.0,4.0,39,0.00,,,0.00,1.000000,,2013-03-13 05:42:00,
2013-03-12 23:52:00,26.0,4.0,-100.00,West,281,2.0,4.0,39,0.00,,,0.00,1.000000,,2013-03-13 05:52:00,